Dewpoint
59 65 69 68 68 69 69 69 69 70 70 69 69 69 69 68 67 68 69 68 68 68 67 67 66 65 64 63 63 62 62 62 63 64 64 64 63 60 60 62 62 61 61
61 64 69 69 68 69 69 70 70 70 70 70 69 69 68 68 68 68 68 68 67 66 66 66 65 63 63 62 61 61 62 63 63 62 62 62 62 62 62 61 61 59 58
60 64 66 69 69 69 70 69 70 69 69 69 69 68 68 68 68 68 67 67 66 65 65 64 63 62 62 62 62 60 60 62 61 60 59 60 61 60 59 60 59 58 58
60 62 64 69 69 69 69 69 69 68 69 68 67 66 66 67 68 67 67 66 65 65 64 64 63 62 62 60 61 61 59 60 61 61 58 59 57 59 59 58 58 59 58
60 62 66 69 69 68 68 68 67 68 67 67 67 67 67 67 67 67 67 66 65 65 63 62 62 62 61 61 61 60 59 60 57 57 58 59 57 59 58 57 58 58 58
61 65 67 68 68 68 68 67 67 68 67 67 67 67 67 67 68 66 65 65 64 63 62 62 61 61 60 61 60 60 60 59 56 57 59 61 60 58 57 58 58 57 57
62 64 65 66 67 67 66 66 67 67 66 66 66 66 66 66 64 66 65 65 63 61 61 61 61 61 61 61 60 60 59 58 56 57 59 60 59 57 57 57 57 57 57
63 64 64 66 66 66 67 66 66 65 65 65 65 65 64 65 66 66 65 64 63 61 61 60 60 60 61 60 60 60 58 55 56 58 59 58 59 57 57 57 56 56 56
63 63 63 63 64 64 64 65 65 66 66 65 67 67 66 66 66 65 65 64 62 61 60 60 60 61 61 61 60 58 57 56 56 55 55 59 57 57 57 56 56 56 56
63 63 63 62 61 61 62 66 66 65 65 67 67 66 66 65 65 64 64 64 62 61 61 60 60 61 61 60 59 57 56 56 55 56 58 57 57 56 56 56 56 55 55
62 62 62 61 61 61 63 66 66 65 65 65 65 63 62 61 63 63 64 64 63 62 61 61 61 62 60 58 57 56 56 54 54 57 57 57 55 56 56 56 55 55 55
60 61 61 61 60 60 60 65 65 63 63 62 61 61 58 59 60 63 64 64 63 62 62 60 60 59 55 53 53 54 52 52 55 55 55 55 56 56 55 55 55 55 55
61 61 61 62 61 60 60 62 63 62 62 61 59 58 59 59 57 58 62 61 60 57 55 55 56 51 51 52 52 52 53 53 55 55 56 56 55 55 55 55 55 54 54
60 60 61 62 61 60 61 60 61 61 59 59 58 57 56 56 55 54 55 59 57 55 53 52 51 52 52 52 52 52 52 52 52 54 56 56 56 55 55 55 54 53 53
60 61 61 61 62 62 61 61 60 59 58 58 57 56 55 55 53 52 52 53 54 53 52 51 50 50 50 51 51 52 51 51 51 53 55 56 56 55 54 54 54 53 52
60 61 62 62 62 62 61 60 59 57 56 56 57 56 55 54 53 52 51 50 51 51 51 50 50 50 50 50 50 50 51 51 50 51 53 54 55 54 53 52 52 52 51
60 61 61 62 61 61 60 59 58 57 56 56 56 55 54 54 53 53 52 50 49 49 51 51 50 50 50 50 51 51 51 51 49 48 50 51 51 51 50 49 48 49 49
61 60 61 62 60 60 60 59 58 56 55 54 54 54 53 53 53 53 52 49 48 48 50 50 50 48 48 48 48 48 48 48 46 45 45 46 48 48 49 47 47 47 47
60 59 59 58 58 58 57 57 56 55 54 53 53 53 53 53 53 52 51 50 47 46 47 48 48 47 47 47 47 46 44 43 42 42 42 43 46 44 44 45 45 45 44
60 59 58 58 57 57 57 56 56 55 53 53 52 52 53 53 53 51 50 49 47 46 46 46 46 46 46 46 44 44 43 42 41 40 38 38 39 38 36 37 37 41 42
60 59 58 57 56 56 56 55 55 55 54 53 53 53 54 54 54 52 51 50 48 47 45 45 45 45 45 45 44 44 44 45 44 43 41 38 36 33 30 31 30 29 37
59 59 58 56 56 56 55 55 54 54 54 54 54 55 54 54 54 53 52 52 51 50 48 47 45 44 45 46 43 42 42 43 44 44 42 41 38 35 31 28 27 28 30
58 58 58 57 56 56 55 55 54 54 55 55 55 56 55 54 54 54 54 53 53 52 50 49 48 46 45 46 46 44 40 39 43 43 42 40 39 38 35 31 29 29 29
57 58 57 57 56 56 55 54 54 54 54 55 55 56 56 55 55 55 55 55 54 53 51 51 49 49 48 46 46 45 45 43 40 41 44 42 39 37 37 35 32 31 30
58 58 58 56 56 56 56 55 55 54 54 55 55 55 55 55 55 56 56 56 55 54 53 52 51 50 49 48 47 46 45 45 44 43 40 44 43 41 39 38 36 34 33
57 58 58 57 56 57 57 56 56 56 55 55 55 56 55 55 56 56 56 56 56 55 54 54 54 52 51 50 49 49 47 45 45 44 43 43 43 44 41 40 39 37 36
Wind_Speed
14 17 13 14 12 12 15 16 17 16 15 15 15 16 17 17 18 19 20 22 21 23 24 24 24 23 23 25 25 27 26 25 25 26 26 25 26 26 25 25 25 24 26
18 18 13 15 14 14 15 16 16 14 15 15 15 17 18 18 17 19 21 23 23 23 24 24 22 22 24 25 26 25 24 24 25 24 25 25 24 25 27 26 23 23 25
18 19 16 14 14 14 16 16 15 14 14 15 16 18 17 20 19 20 23 22 22 21 22 22 21 22 23 24 24 22 21 21 22 21 21 19 21 24 24 22 23 24 24
19 18 17 13 13 13 15 14 14 15 16 16 17 18 18 15 20 22 23 22 22 21 21 21 21 22 22 22 22 21 19 14 12 16 21 17 19 22 22 23 24 25 25
17 14 18 13 14 14 15 15 19 19 20 20 19 19 21 14 20 19 23 22 22 21 21 20 21 21 21 22 20 18 13 12 20 22 20 15 15 20 22 23 23 24 24
14 17 16 15 15 16 17 18 19 19 20 21 24 24 25 24 20 20 21 22 20 19 20 19 20 19 20 20 16 11 8 12 17 21 16 17 16 20 22 23 23 23 23
14 17 16 16 17 18 18 18 19 20 23 23 23 21 22 23 19 16 19 19 19 18 19 20 20 19 20 17 13 10 9 14 19 16 15 17 18 22 23 21 22 23 22
17 18 17 17 19 19 19 19 19 20 24 25 21 17 17 19 21 21 19 20 19 18 19 19 19 19 19 16 11 12 11 19 19 17 17 16 21 21 20 21 21 22 21
19 18 19 19 20 21 21 20 19 21 22 24 19 18 19 19 20 20 20 20 19 19 18 18 19 19 18 15 11 9 15 20 19 14 15 16 20 19 19 19 20 20 20
19 20 19 21 20 19 18 21 22 23 25 25 22 20 20 18 20 19 19 19 19 19 18 18 18 18 17 14 10 7 11 23 15 13 15 16 17 18 18 19 18 19 18
17 22 21 18 18 16 16 19 22 23 24 26 22 22 18 16 16 15 18 19 19 18 17 18 16 16 16 12 7 3 6 14 14 15 13 16 16 17 17 17 17 17 16
20 21 18 19 15 13 15 14 19 19 15 16 15 12 12 14 14 16 17 19 19 18 16 16 14 15 14 11 5 2 12 11 18 11 13 13 15 16 16 15 15 15 14
21 19 17 17 15 14 17 15 12 13 11 11 13 11 14 15 15 14 14 13 13 15 13 12 8 6 8 8 7 9 13 9 15 11 13 12 13 14 14 13 13 13 13
21 18 18 17 14 14 11 13 12 10 10 12 12 12 12 10 10 11 8 13 10 8 9 8 8 9 9 8 8 7 10 9 12 11 11 12 12 13 13 12 12 12 13
17 17 14 16 14 13 11 11 10 13 11 11 11 9 10 10 8 9 9 8 8 9 8 9 9 9 9 8 8 9 8 10 12 10 10 12 11 11 12 11 11 11 12
18 17 15 13 15 12 11 11 9 10 12 11 10 9 10 10 9 8 7 6 6 6 7 8 8 8 8 7 7 8 8 8 9 11 10 11 13 11 10 9 10 10 10
19 17 16 13 13 13 12 11 9 10 10 10 10 9 9 9 8 9 8 7 6 5 6 8 7 7 7 7 7 6 6 6 7 8 9 10 9 12 8 8 8 9 8
18 18 19 14 14 14 12 9 9 10 9 10 10 9 9 8 9 8 7 7 7 7 7 7 8 7 7 7 7 6 5 5 6 6 5 6 6 8 7 7 6 7 7
16 18 17 17 15 13 12 11 11 10 9 9 10 10 9 8 7 7 7 7 8 7 7 6 6 6 6 6 5 5 4 4 4 4 5 4 3 2 6 4 4 5 5
15 16 17 15 15 13 13 12 11 10 9 9 9 10 10 8 7 6 6 8 7 7 6 6 6 5 5 5 4 4 3 3 2 4 5 4 6 4 3 5 5 5 2
15 18 17 16 15 11 13 13 12 11 9 8 8 8 9 7 8 6 6 7 6 6 7 7 6 6 5 5 5 3 3 5 6 6 5 7 6 6 5 5 5 4 6
17 16 16 16 14 13 12 11 10 10 9 9 8 8 8 8 8 7 7 7 7 6 7 7 6 6 5 7 4 4 4 7 10 9 8 8 8 7 7 8 8 7 4
18 17 16 18 17 15 12 11 9 8 8 9 9 8 9 9 9 8 8 7 7 6 6 7 8 8 7 7 8 4 4 5 6 8 10 9 9 8 9 10 9 9 8
20 21 22 20 20 17 15 13 14 12 11 9 10 10 10 11 11 10 9 8 7 7 7 8 9 8 8 7 6 9 7 5 3 3 7 10 10 11 11 11 10 11 10
18 19 19 19 19 18 16 16 15 14 13 12 11 12 11 11 12 12 11 10 9 8 8 8 9 10 9 9 9 5 9 8 8 7 9 6 9 11 12 12 11 12 12
17 15 17 18 19 16 16 19 18 17 15 12 13 13 12 10 11 12 12 11 11 11 11 10 10 11 11 10 9 10 9 5 9 10 11 12 11 6 12 11 12 12 12
Wind_Direction
140 132 132 132 130 126 127 132 130 126 123 120 118 118 121 119 115 111 108 102 97 90 89 86 87 87 85 84 83 81 81 83 83 79 77 73 77 79 77 73 73 71 72
140 138 138 136 130 126 128 125 127 128 121 119 120 120 116 111 107 107 102 97 93 91 88 87 85 88 86 88 89 89 90 87 87 84 82 78 79 76 76 73 74 78 75
137 132 139 135 129 129 118 126 126 122 118 118 115 108 100 106 108 103 96 93 90 92 92 90 88 89 91 93 93 97 93 90 96 99 85 80 77 76 78 76 77 74 73
134 143 134 133 133 129 124 120 118 115 107 103 102 110 105 99 104 101 97 94 92 88 89 90 92 93 95 98 98 98 101 109 117 127 83 74 85 81 80 79 74 71 70
129 128 122 133 135 128 121 119 117 110 106 100 98 91 99 101 97 96 92 93 91 91 91 94 96 98 99 98 102 105 100 78 68 67 81 81 79 78 77 75 73 71 70
116 110 127 135 129 126 123 120 119 115 115 113 111 97 90 85 75 87 90 87 90 93 95 95 95 99 102 99 100 89 70 99 82 87 85 83 82 83 77 74 73 73 72
127 119 134 133 124 123 120 118 118 119 115 111 106 105 105 106 110 95 100 95 96 97 99 100 100 101 97 98 91 61 59 100 92 89 80 78 77 77 74 76 75 72 71
125 127 130 123 120 118 116 114 114 115 112 110 112 115 115 122 128 123 109 102 101 102 100 102 102 100 95 93 77 40 32 102 95 85 80 75 76 75 78 77 77 75 72
129 130 132 129 123 117 111 102 102 104 110 120 117 114 108 119 118 115 110 104 105 102 102 101 102 98 94 90 72 51 56 82 85 79 81 77 77 80 78 77 75 75 73
139 133 134 135 130 124 114 102 98 106 109 105 104 101 97 104 114 110 105 103 102 103 103 101 100 98 93 88 78 59 81 91 86 85 75 80 84 85 81 78 76 75 74
140 137 138 140 117 113 113 109 103 105 104 108 113 122 123 117 111 112 105 102 101 102 105 104 103 101 95 85 74 314 283 92 102 80 79 83 88 85 84 82 78 76 75
147 145 144 132 137 144 130 118 115 125 126 122 137 150 119 111 103 107 108 100 100 98 102 110 121 136 127 118 92 310 87 91 87 84 88 93 92 90 86 83 82 79 77
148 151 153 128 154 145 136 138 155 129 128 129 118 122 111 120 131 124 131 123 121 124 118 127 157 116 105 104 86 91 93 113 85 88 92 93 95 93 91 88 86 85 80
154 156 148 130 156 139 142 148 139 129 132 129 128 134 131 119 127 135 132 142 149 120 131 117 109 108 107 107 105 112 109 97 102 103 84 92 100 100 96 93 88 81 75
156 154 142 146 138 146 150 137 148 134 143 132 132 132 120 124 130 127 134 133 128 141 134 122 121 121 115 114 115 110 114 109 110 110 94 70 84 95 92 88 84 77 72
160 153 147 159 145 153 139 148 145 150 130 140 134 138 132 131 138 129 125 110 128 135 135 132 130 117 121 125 123 118 115 115 115 126 126 89 68 76 84 80 74 71 69
164 155 154 148 151 143 144 145 149 134 144 139 137 144 140 144 148 141 141 143 134 131 137 127 121 126 130 131 133 131 115 115 124 132 138 128 107 67 72 77 73 64 58
163 153 156 154 160 152 149 148 147 152 147 142 142 145 146 153 153 153 154 141 140 148 153 149 148 153 153 148 150 138 134 144 136 125 136 138 130 139 102 64 64 61 48
163 159 157 160 159 154 154 158 152 155 152 151 151 152 158 156 163 160 161 146 156 152 161 157 153 162 158 146 143 145 149 147 142 152 152 155 106 176 126 111 72 56 42
176 164 164 162 161 158 158 157 155 155 158 161 163 159 161 163 168 162 155 157 159 160 155 162 165 169 162 151 153 153 161 169 173 188 179 179 187 193 214 169 185 137 59
174 181 169 165 169 163 172 172 168 173 166 171 172 165 172 173 178 172 166 165 179 177 176 177 163 165 161 160 153 178 208 217 226 213 212 214 202 211 213 221 224 224 183
170 176 175 175 172 179 182 184 179 178 175 177 179 181 177 176 182 188 184 185 192 198 189 182 174 181 179 191 213 198 218 201 223 223 218 227 221 208 226 227 229 229 242
180 179 181 178 182 189 189 183 181 176 176 183 182 189 188 187 184 197 201 198 196 205 200 190 191 197 199 205 238 268 241 249 157 184 223 227 232 226 229 224 231 234 231
190 187 187 187 189 194 185 186 192 184 191 191 188 191 191 196 191 197 204 207 202 203 204 197 201 208 229 205 209 243 258 306 289 210 210 218 226 235 233 227 230 230 228
200 193 199 194 191 196 188 192 196 204 203 191 192 195 195 197 204 200 201 204 208 207 213 206 202 211 218 232 197 207 228 242 252 257 283 194 211 225 233 239 230 226 223
200 199 202 199 197 199 199 199 204 209 215 203 188 200 192 196 204 210 207 207 211 213 214 210 208 215 219 225 241 229 219 212 222 230 251 265 272 210 206 227 233 232 223